EW5580 Millis MA US current weather conditions

sailwx.info

Wind from 150

Air temperature 20.0° C
Dewpoint 17.6° C

Last reported at 2020-May-29 04:10 UTC.
Time now 2020-May-29 04:33 UTC

Location: N 42°10' W 071°21'.
View on Google Maps.

See reports from other nearby stations

  
Tides and Currents Weather Stations Pressure Air Temp Water Temp Dewpoint Dewpoint Depression Visibility Wind Speed Wind Dir Waves Ship Positions
date/time (UTC)wind fromknots sea level pressurealtimeterstation pressurevisibilityair tempwater tempwave heightnotes
2020-May-29 04:10 150 20.0
2020-May-29 04:05 150 20.6
2020-May-29 03:55 194 20.6
2020-May-29 03:50 194 20.6
2020-May-29 03:45 185 20.6
2020-May-29 03:40 185 20.6
2020-May-29 03:35 181 0 gusting 4 20.6
2020-May-29 03:25 227 20.6
2020-May-29 03:20 182 20.6
2020-May-29 03:15 178 20.6
2020-May-29 03:10 196 20.6
2020-May-29 03:05 196 20.6
2020-May-29 03:00 175 21.1
2020-May-29 02:55 296 21.1
2020-May-29 02:50 163 21.1
2020-May-29 02:40 343 0 gusting 3 21.1
2020-May-29 02:35 155 21.1
2020-May-29 02:30 163 21.1
2020-May-29 02:25 205 21.1
2020-May-29 02:20 212 0 gusting 4 21.1
2020-May-29 02:15 236 21.1
2020-May-29 02:10 132 0 gusting 6 21.7
2020-May-29 02:05 328 1 gusting 7 21.7
2020-May-29 02:00 275 21.7
2020-May-29 01:55 223 0 gusting 5 21.7
2020-May-29 01:50 216 21.7
2020-May-29 01:45 315 0 gusting 5 21.1
2020-May-29 01:40 121 1 gusting 5 21.1
2020-May-29 01:35 308 21.1
2020-May-29 01:30 197 21.1
2020-May-29 01:25 137 21.1
2020-May-29 01:20 252 21.1
2020-May-29 01:15 284 0 gusting 3 21.1
2020-May-29 01:06 058 21.7
2020-May-29 01:02 171 0 gusting 5 21.7
2020-May-29 00:55 173 21.7
2020-May-29 00:51 215 21.7
2020-May-29 00:46 199 21.7
2020-May-29 00:41 196 21.7
2020-May-29 00:36 184 22.2
2020-May-29 00:31 178 0 gusting 4 22.2
2020-May-29 00:25 201 22.2
2020-May-29 00:21 262 22.2
2020-May-29 00:17 290 22.2
2020-May-29 00:10 291 22.2
2020-May-29 00:05 185 0 gusting 3 22.2
2020-May-29 00:01 212 22.2
2020-May-28 23:55 194 22.8
2020-May-28 23:50 213 0 gusting 6 22.8
2020-May-28 23:47 172 22.8
2020-May-28 23:40 111 22.8
2020-May-28 23:35 207 23.3
2020-May-28 23:31 219 0 gusting 4 23.3
2020-May-28 23:25 200 23.3
2020-May-28 23:20 212 0 gusting 6 23.3
2020-May-28 23:16 279 1 gusting 3 23.3
2020-May-28 23:10 187 0 gusting 3 23.9
2020-May-28 23:05 259 23.9
2020-May-28 23:01 267 23.9
2020-May-28 22:55 288 1 gusting 6 23.9
2020-May-28 22:50 220 0 gusting 6 23.9
2020-May-28 22:46 157 24.4
2020-May-28 22:41 306 0 gusting 6 24.4
2020-May-28 22:35 267 0 gusting 6 24.4
2020-May-28 22:31 223 23.9
2020-May-28 22:25 188 23.9
2020-May-28 22:21 150 1 gusting 6 23.9
2020-May-28 22:17 200 0 gusting 6 24.4
2020-May-28 22:11 292 0 gusting 6 24.4
2020-May-28 22:05 211 24.4
2020-May-28 22:01 180 1 gusting 8 24.4
2020-May-28 21:55 288 0 gusting 5 24.4
2020-May-28 21:50 148 0 gusting 5 24.4
2020-May-28 21:46 225 24.4
2020-May-28 21:40 190 0 gusting 3 24.4
2020-May-28 21:35 180 24.4
2020-May-28 21:31 019 2 gusting 8 24.4
2020-May-28 21:25 194 1 gusting 8 24.4
2020-May-28 21:20 180 1 gusting 6 24.4
2020-May-28 21:16 206 24.4
2020-May-28 21:10 289 1 gusting 4 24.4
2020-May-28 21:06 104 24.4
2020-May-28 21:01 296 0 gusting 6 24.4
2020-May-28 20:55 227 0 gusting 6 24.4
2020-May-28 20:51 137 0 gusting 4 25.0
2020-May-28 20:46 202 25.0
2020-May-28 20:40 269 25.0
2020-May-28 20:35 323 25.0
2020-May-28 20:25 192 0 gusting 5 25.0
2020-May-28 20:20 284 1 gusting 5 25.0
2020-May-28 20:17 276 0 gusting 4 25.0
2020-May-28 20:10 355 25.0
2020-May-28 20:05 273 0 gusting 5 25.0
2020-May-28 20:01 313 0 gusting 5 25.0
2020-May-28 19:55 301 25.0
2020-May-28 19:50 152 1 gusting 7 25.0
2020-May-28 19:46 304 0 gusting 7 25.0
2020-May-28 19:40 039 0 gusting 6 25.0
2020-May-28 19:35 169 0 gusting 6 25.0
2020-May-28 19:31 180 0 gusting 6 25.0
2020-May-28 19:25 136 1 gusting 6 25.0
2020-May-28 19:20 181 0 gusting 6 24.4
2020-May-28 19:15 281 0 gusting 6 24.4
2020-May-28 19:10 213 0 gusting 4 25.0
2020-May-28 19:05 284 0 gusting 5 25.0
2020-May-28 19:00 351 25.0
2020-May-28 18:55 213 0 gusting 6 25.0
2020-May-28 18:50 319 25.0
2020-May-28 18:45 292 0 gusting 9 25.0
2020-May-28 18:40 275 2 gusting 9 25.0
2020-May-28 18:35 217 25.0
2020-May-28 18:30 199 1 gusting 6 25.0
2020-May-28 18:25 277 1 gusting 8 25.0
2020-May-28 18:20 117 1 gusting 8 25.0
2020-May-28 18:15 189 1 gusting 6 24.4
2020-May-28 18:10 307 24.4
2020-May-28 18:05 261 0 gusting 7 24.4
2020-May-28 18:00 296 1 gusting 7 24.4
2020-May-28 17:55 198 0 gusting 4 24.4
2020-May-28 17:50 249 24.4
2020-May-28 17:45 118 24.4
2020-May-28 17:40 196 1 gusting 6 25.0
2020-May-28 17:35 350 25.0
2020-May-28 17:30 133 1 gusting 7 25.0
2020-May-28 17:25 287 0 gusting 6 25.0
2020-May-28 17:20 005 1 gusting 6 24.4
2020-May-28 17:16 202 0 gusting 4 24.4
2020-May-28 17:10 205 24.4
2020-May-28 17:05 286 25.0
2020-May-28 17:00 102 0 gusting 5 25.0
2020-May-28 16:55 286 25.0
2020-May-28 16:50 253 25.0
2020-May-28 16:46 304 25.0
2020-May-28 16:40 280 24.4
2020-May-28 16:35 086 0 gusting 5 24.4
2020-May-28 16:30 218 0 gusting 4 24.4
2020-May-28 16:25 111 0 gusting 6 24.4
2020-May-28 16:20 296 0 gusting 8 24.4
2020-May-28 16:16 283 24.4
2020-May-28 16:10 206 2 gusting 8 24.4
2020-May-28 16:05 339 0 gusting 7 24.4
2020-May-28 16:00 264 2 gusting 7 24.4
2020-May-28 15:55 240 1 gusting 7 24.4
2020-May-28 15:50 309 0 gusting 7 24.4
2020-May-28 15:45 273 1 gusting 8 23.9
2020-May-28 15:40 268 2 gusting 6 23.9
2020-May-28 15:35 355 23.3
2020-May-28 15:30 331 23.3
2020-May-28 15:25 252 0 gusting 8 23.3
2020-May-28 15:20 287 2 gusting 8 23.9
2020-May-28 15:15 227 0 gusting 7 23.9
2020-May-28 15:10 273 0 gusting 5 23.9
2020-May-28 15:05 300 0 gusting 6 23.3
2020-May-28 15:00 219 1 gusting 6 23.3
2020-May-28 14:55 279 0 gusting 6 23.3
2020-May-28 14:50 022 23.3
2020-May-28 14:40 331 1 gusting 7 22.8
2020-May-28 14:35 005 1 gusting 6 22.8
2020-May-28 14:25 274 0 gusting 3 22.8
2020-May-28 14:20 005 0 gusting 3 22.2
2020-May-28 14:10 275 22.2
2020-May-28 14:05 275 1 gusting 5 22.2
2020-May-28 13:55 290 21.7
2020-May-28 13:50 291 21.7
2020-May-28 13:40 313 21.7
2020-May-28 13:35 347 21.7
2020-May-28 13:30 011 21.7
2020-May-28 13:25 283 21.7
2020-May-28 13:20 299 21.7
2020-May-28 13:10 298 21.7
2020-May-28 13:05 295 21.7
2020-May-28 12:55 181 21.1
2020-May-28 12:50 304 21.1
2020-May-28 12:41 290 21.1
2020-May-28 12:36 206 21.1
2020-May-28 12:31 206 21.1
2020-May-28 12:25 203 21.1
2020-May-28 12:20 236 21.1
2020-May-28 12:17 304 21.1
2020-May-28 12:11 304 21.1
2020-May-28 12:05 304 20.6
2020-May-28 12:01 249 20.6
2020-May-28 11:56 279 20.6
2020-May-28 11:51 279 20.6
2020-May-28 11:46 281 20.6
2020-May-28 11:41 281 20.0
2020-May-28 11:35 281 20.0
2020-May-28 11:30 281 20.0
2020-May-28 11:25 279 0 gusting 6 20.0
2020-May-28 11:20 288 20.0
2020-May-28 11:16 198 20.0
2020-May-28 11:11 200 20.0
2020-May-28 11:05 287 19.4
2020-May-28 11:02 294 19.4
2020-May-28 10:55 294 19.4
2020-May-28 10:50 305 19.4
2020-May-28 10:47 291 19.4
2020-May-28 10:40 279 19.4
2020-May-28 10:36 279 19.4
2020-May-28 10:31 279 18.9
2020-May-28 10:25 017 18.9
2020-May-28 10:20 277 18.9
2020-May-28 10:16 317 0 gusting 4 18.9
2020-May-28 10:10 335 18.9
2020-May-28 10:05 344 0 gusting 6 18.9
2020-May-28 10:02 293 0 gusting 6 18.9
2020-May-28 09:55 342 18.9
2020-May-28 09:50 205 0 gusting 5 18.9
2020-May-28 09:45 325 0 gusting 5 18.9
2020-May-28 09:40 259 18.9
2020-May-28 09:35 261 18.9
2020-May-28 09:30 292 0 gusting 5 18.9
2020-May-28 09:25 028 18.9
2020-May-28 09:20 285 18.9
2020-May-28 09:16 234 18.9
2020-May-28 09:10 005 18.9
2020-May-28 09:05 311 18.9
2020-May-28 09:00 317 0 gusting 4 18.3
2020-May-28 08:55 276 0 gusting 4 18.3
2020-May-28 08:51 274 18.3
2020-May-28 08:46 143 18.3
2020-May-28 08:40 131 18.3
2020-May-28 08:35 174 18.3
2020-May-28 08:31 107 18.3
2020-May-28 08:25 314 0 gusting 3 18.3
2020-May-28 08:20 304 18.3
2020-May-28 08:16 265 18.3
2020-May-28 08:10 265 18.3
2020-May-28 08:05 285 18.3
2020-May-28 08:00 285 18.3
2020-May-28 07:55 285 18.3
2020-May-28 07:50 288 18.3
2020-May-28 07:46 290 0 gusting 2 18.3
2020-May-28 07:40 266 18.3
2020-May-28 07:35 064 18.3
2020-May-28 07:31 064 18.3
2020-May-28 07:25 068 18.3
2020-May-28 07:20 068 18.3
2020-May-28 07:16 068 18.3
2020-May-28 07:10 068 18.3
2020-May-28 07:05 065 18.3
2020-May-28 07:01 065 18.3
2020-May-28 06:55 066 18.3
2020-May-28 06:50 066 18.3
2020-May-28 06:46 342 18.3
2020-May-28 06:40 330 18.3
2020-May-28 06:35 323 18.9
2020-May-28 06:31 173 18.9
2020-May-28 06:25 319 18.9
2020-May-28 06:20 030 18.9
2020-May-28 06:16 197 18.9
2020-May-28 06:10 268 18.9
2020-May-28 06:05 275 18.9
2020-May-28 06:01 254 18.9
2020-May-28 05:55 297 18.9
2020-May-28 05:50 240 18.9
2020-May-28 05:45 309 18.9
2020-May-28 05:40 326 18.9
2020-May-28 05:35 325 18.9
2020-May-28 05:30 327 0 gusting 5 18.9
2020-May-28 05:25 316 18.9
2020-May-28 05:20 284 18.9
2020-May-28 05:15 234 18.9
2020-May-28 05:10 319 18.9
2020-May-28 05:05 005 18.9
2020-May-28 05:01 132 18.9
2020-May-28 04:55 286 18.9
2020-May-28 04:50 210 18.9
2020-May-28 04:45 211 18.9
2020-May-28 04:40 211 18.9
2020-May-28 04:35 211 18.9
2020-May-28 04:30 270 18.9
2020-May-28 04:25 295 18.9
2020-May-28 04:20 295 18.9
2020-May-28 04:15 302 18.9
2020-May-28 04:10 302 18.9
2020-May-28 04:05 302 19.4
2020-May-28 04:00 244 19.4
2020-May-28 03:55 260 19.4
2020-May-28 03:50 267 19.4
2020-May-28 03:45 338 19.4
2020-May-28 03:40 338 19.4
2020-May-28 03:35 163 19.4
2020-May-28 03:30 150 19.4
2020-May-28 03:25 186 20.0
2020-May-28 03:20 136 20.0
2020-May-28 03:10 080 20.0
2020-May-28 03:05 077 20.0
2020-May-28 02:55 096 20.0
2020-May-28 02:50 229 20.0
2020-May-28 02:45 244 20.0
2020-May-28 02:40 266 20.0
2020-May-28 02:35 261 0 gusting 6 20.0
2020-May-28 02:25 289 0 gusting 3 20.0
2020-May-28 02:20 203 20.0
2020-May-28 02:10 246 20.6
2020-May-28 02:05 161 20.6
2020-May-28 01:55 207 20.6
2020-May-28 01:50 128 20.6
2020-May-28 01:45 317 0 gusting 3 20.6
2020-May-28 01:40 228 20.6
2020-May-28 01:35 161 20.6
2020-May-28 01:25 317 21.1
2020-May-28 01:20 317 21.1
2020-May-28 01:10 248 21.1
2020-May-28 01:05 196 21.7
2020-May-28 00:55 140 21.7
2020-May-28 00:50 140 21.7
2020-May-28 00:45 140 21.7
2020-May-28 00:40 137 22.2
2020-May-28 00:35 212 22.2
2020-May-28 00:25 183 22.8
2020-May-28 00:20 183 22.8
2020-May-28 00:15 185 22.8
2020-May-28 00:10 355 22.8
2020-May-28 00:05 028 0 gusting 5 22.8
2020-May-28 00:00 210 0 gusting 3 23.3
2020-May-27 23:55 289 23.3
2020-May-27 23:50 238 23.3
2020-May-27 23:45 204 23.3
2020-May-27 23:40 204 23.9
2020-May-27 23:35 317 0 gusting 3 23.9
2020-May-27 23:25 251 24.4
2020-May-27 23:20 289 24.4
2020-May-27 23:15 114 1 gusting 5 24.4
2020-May-27 23:10 312 0 gusting 5 25.0
2020-May-27 23:05 188 25.0
2020-May-27 22:55 292 0 gusting 8 25.6
2020-May-27 22:50 123 1 gusting 8 26.1
2020-May-27 22:40 231 0 gusting 5 26.7
2020-May-27 22:35 080 0 gusting 4 26.7
2020-May-27 22:25 186 0 gusting 7 27.2
2020-May-27 22:20 225 27.2
2020-May-27 22:15 225 0 gusting 7 27.2
2020-May-27 22:10 200 27.2
2020-May-27 22:05 291 27.2
2020-May-27 22:00 344 0 gusting 6 27.2
2020-May-27 21:55 153 0 gusting 6 27.2
2020-May-27 21:50 333 0 gusting 7 27.2
2020-May-27 21:45 360 0 gusting 7 27.2
2020-May-27 21:40 218 1 gusting 7 27.2
2020-May-27 21:35 292 27.2
2020-May-27 21:30 202 27.2
2020-May-27 21:25 183 0 gusting 4 27.8
2020-May-27 21:20 254 0 gusting 4 27.8
2020-May-27 21:15 197 28.3
2020-May-27 21:10 189 0 gusting 4 28.3
2020-May-27 21:05 172 0 gusting 4 28.9
2020-May-27 20:55 194 28.9
2020-May-27 20:50 269 28.9
2020-May-27 20:45 200 28.9
2020-May-27 20:40 255 0 gusting 5 28.9
2020-May-27 20:35 103 28.9
2020-May-27 20:30 217 0 gusting 6 29.4
2020-May-27 20:25 198 1 gusting 5 29.4
2020-May-27 20:20 241 0 gusting 10 29.4
2020-May-27 20:15 206 0 gusting 10 29.4
2020-May-27 20:10 184 0 gusting 6 30.0
2020-May-27 20:05 195 0 gusting 4 30.0
2020-May-27 20:00 188 0 gusting 4 30.0
2020-May-27 19:55 288 30.0
2020-May-27 19:46 198 30.0
2020-May-27 19:41 155 0 gusting 7 30.0
2020-May-27 19:35 205 1 gusting 7 30.0
2020-May-27 19:31 247 0 gusting 6 30.0
2020-May-27 19:25 175 2 gusting 6 30.0
2020-May-27 19:20 207 30.0
2020-May-27 19:16 277 1 gusting 6 30.0
2020-May-27 19:11 205 1 gusting 6 30.0
2020-May-27 19:05 199 1 gusting 6 29.4
2020-May-27 19:01 242 0 gusting 7 29.4
2020-May-27 18:56 151 29.4
2020-May-27 18:50 074 1 gusting 7 30.0
2020-May-27 18:46 209 1 gusting 7 30.0
2020-May-27 18:40 182 0 gusting 4 30.0
2020-May-27 18:35 205 0 gusting 5 30.0
2020-May-27 18:31 203 0 gusting 5 30.0
2020-May-27 18:26 207 29.4
2020-May-27 18:20 309 0 gusting 6 29.4
2020-May-27 18:16 233 1 gusting 5 29.4
2020-May-27 18:10 213 29.4
2020-May-27 18:06 184 0 gusting 8 29.4
2020-May-27 18:01 221 0 gusting 8 29.4
2020-May-27 17:56 302 29.4
2020-May-27 17:46 268 29.4
2020-May-27 17:40 174 1 gusting 6 29.4
2020-May-27 17:35 195 1 gusting 4 29.4
2020-May-27 17:31 047 29.4
2020-May-27 17:25 157 1 gusting 6 29.4
2020-May-27 17:20 146 0 gusting 7 28.9
2020-May-27 17:16 015 1 gusting 7 28.9
2020-May-27 17:10 227 29.4
2020-May-27 17:05 276 1 gusting 3 28.9
2020-May-27 17:01 319 0 gusting 6 28.9
2020-May-27 16:55 005 0 gusting 5 29.4
2020-May-27 16:50 232 0 gusting 5 29.4
2020-May-27 16:46 215 0 gusting 4 28.9
2020-May-27 16:40 298 0 gusting 3 28.9
2020-May-27 16:35 207 28.9
2020-May-27 16:31 198 1 gusting 5 28.3
2020-May-27 16:25 036 0 gusting 6 28.3
2020-May-27 16:20 261 1 gusting 7 28.3
2020-May-27 16:15 314 1 gusting 7 28.3
2020-May-27 16:10 340 0 gusting 6 28.3
2020-May-27 16:05 217 2 gusting 5 28.3
2020-May-27 16:00 176 28.3
2020-May-27 15:55 159 28.3
2020-May-27 15:50 229 27.8
2020-May-27 15:45 268 0 gusting 5 27.8
2020-May-27 15:40 345 27.8
2020-May-27 15:35 337 0 gusting 9 27.8
2020-May-27 15:30 205 0 gusting 9 27.2
2020-May-27 15:25 301 0 gusting 4 27.2
2020-May-27 15:20 296 0 gusting 6 27.2
2020-May-27 15:15 309 2 gusting 6 27.2
2020-May-27 15:10 053 26.7
2020-May-27 15:05 292 1 gusting 6 26.7
2020-May-27 15:00 277 0 gusting 3 26.7
2020-May-27 14:55 205 26.7
2020-May-27 14:50 220 26.7
2020-May-27 14:46 205 26.1
2020-May-27 14:40 208 25.6
2020-May-27 14:35 053 0 gusting 6 25.6
2020-May-27 14:25 291 0 gusting 4 25.0
2020-May-27 14:20 225 0 gusting 6 25.0
2020-May-27 14:10 163 0 gusting 6 24.4
2020-May-27 14:05 296 1 gusting 6 24.4
2020-May-27 13:55 270 1 gusting 5 23.9
2020-May-27 13:50 269 0 gusting 4 23.9
2020-May-27 13:45 301 23.3
2020-May-27 13:40 290 2 gusting 6 23.3
2020-May-27 13:35 272 22.8
2020-May-27 13:26 267 1 gusting 6 22.8
2020-May-27 13:20 342 22.2
2020-May-27 13:18 267 22.2
2020-May-27 13:10 292 21.7
2020-May-27 13:05 331 1 gusting 6 21.7
2020-May-27 13:02 278 1 gusting 6 21.1
2020-May-27 12:56 277 20.6
2020-May-27 12:50 154 0 gusting 5 20.6
2020-May-27 12:40 235 0 gusting 3 20.0
2020-May-27 12:35 155 20.0
2020-May-27 12:31 263 19.4
2020-May-27 12:25 281 19.4
2020-May-27 12:20 324 3 gusting 7 19.4
2020-May-27 12:16 275 1 gusting 4 18.9
2020-May-27 12:10 206 18.9
2020-May-27 12:05 202 18.3
2020-May-27 12:00 281 0 gusting 4 18.3
2020-May-27 11:55 281 1 gusting 3 18.3
2020-May-27 11:50 270 0 gusting 4 17.8
2020-May-27 11:45 306 17.8
2020-May-27 11:40 282 0 gusting 5 17.8
2020-May-27 11:35 280 1 gusting 4 17.8
2020-May-27 11:30 292 17.2
2020-May-27 11:25 272 0 gusting 6 17.2
2020-May-27 11:20 292 0 gusting 4 17.2
2020-May-27 11:15 297 17.2
2020-May-27 11:10 297 17.2
2020-May-27 11:05 298 0 gusting 6 17.2
2020-May-27 11:00 236 17.2
2020-May-27 10:55 287 16.7
2020-May-27 10:50 292 16.7
2020-May-27 10:45 277 16.7
2020-May-27 10:40 166 16.7
2020-May-27 10:35 291 16.7
2020-May-27 10:31 291 16.7
2020-May-27 10:25 291 16.7
2020-May-27 10:20 236 16.1
2020-May-27 10:16 201 16.1
2020-May-27 10:10 201 16.1
2020-May-27 10:05 201 16.1
2020-May-27 10:01 196 16.1
2020-May-27 09:55 196 16.1
2020-May-27 09:50 196 16.1
2020-May-27 09:45 192 16.1
2020-May-27 09:40 192 16.1
2020-May-27 09:35 192 16.1
2020-May-27 09:31 234 16.1
2020-May-27 09:25 234 16.1
2020-May-27 09:20 234 16.7
2020-May-27 09:15 234 16.7
2020-May-27 09:10 234 16.7
2020-May-27 09:05 234 16.7
2020-May-27 09:00 234 16.7
2020-May-27 08:55 234 16.7
2020-May-27 08:50 234 16.7
2020-May-27 08:45 234 16.7
2020-May-27 08:40 229 16.7
2020-May-27 08:35 242 17.2
2020-May-27 08:25 242 17.2
2020-May-27 08:20 242 17.2
2020-May-27 08:16 333 17.2
2020-May-27 08:10 333 17.2
2020-May-27 08:05 224 17.2
2020-May-27 07:55 224 17.2
2020-May-27 07:50 156 17.2
2020-May-27 07:45 269 17.2
2020-May-27 07:40 291 17.2
2020-May-27 07:30 202 17.2
2020-May-27 07:25 202 17.2
2020-May-27 07:20 202 17.2
2020-May-27 07:10 303 17.2
2020-May-27 07:05 296 17.2
2020-May-27 06:55 296 17.2
2020-May-27 06:50 296 17.2
2020-May-27 06:40 298 17.2
2020-May-27 06:35 298 17.2
2020-May-27 06:25 298 17.2
2020-May-27 06:20 298 17.2
2020-May-27 06:15 298 17.2
2020-May-27 06:10 252 17.2
2020-May-27 06:00 252 17.2
2020-May-27 05:55 269 0 gusting 3 16.7
2020-May-27 05:45 267 16.7
2020-May-27 05:40 267 16.7
2020-May-27 05:35 210 16.7
2020-May-27 05:25 216 16.7
2020-May-27 05:20 216 16.7
2020-May-27 05:15 212 16.7
2020-May-27 05:10 200 16.7
2020-May-27 05:05 200 16.7
2020-May-27 05:00 154 16.7
2020-May-27 04:55 207 16.7
2020-May-27 04:50 206 16.7
2020-May-27 04:40 206 16.7
2020-May-27 04:35 199 16.7
2020-May-27 04:30 199 16.7
2020-May-27 04:25 196 16.7
2020-May-27 04:20 196 16.7
2020-May-27 04:15 195 16.7
2020-May-27 04:06 209 16.7